#Datum;Uhrzeit;WR;Pac;DaySum;Status;WR;Pac;DaySum;Status;Pdc1;Udc;Temp;WR;Pac;DaySum;Status;Pdc1;Udc;Temp;WR;Pac;DaySum;Status;Pdc1;Udc;Temp;WR;Pac;DaySum;Status;Pdc1;Pdc2;Udc1;Udc2;Temp;WR;Pac;DaySum;Status;Pdc1;Pdc2;Udc1;Udc2;Temp;WR;Pac;DaySum;Status;Pdc1;Udc;Temp;WR;Pac;DaySum;Status;Pdc1;Udc;Temp;WR;Pac;DaySum;Status;Pdc1;Udc;Temp
07.12.20;23:55:00;1;338;12492;0;2;0;1643;0;0;0;0;3;0;958;0;0;0;0;4;0;1282;0;0;0;0;5;0;0;0;0;0;0;0;0;6;0;1859;0;0;0;0;0;0;7;0;1654;0;0;0;0;8;0;1690;0;0;0;0;9;0;845;0;0;0;0
07.12.20;23:50:00;1;290;12464;0;2;0;1643;0;0;0;0;3;0;958;0;0;0;0;4;0;1282;0;0;0;0;5;0;0;0;0;0;0;0;0;6;0;1859;0;0;0;0;0;0;7;0;1654;0;0;0;0;8;0;1690;0;0;0;0;9;0;845;0;0;0;0
07.12.20;23:45:00;1;323;12439;0;2;0;1643;0;0;0;0;3;0;958;0;0;0;0;4;0;1282;0;0;0;0;5;0;0;0;0;0;0;0;0;6;0;1859;0;0;0;0;0;0;7;0;1654;0;0;0;0;8;0;1690;0;0;0;0;9;0;845;0;0;0;0
07.12.20;23:40:00;1;284;12411;0;2;0;1643;0;0;0;0;3;0;958;0;0;0;0;4;0;1282;0;0;0;0;5;0;0;0;0;0;0;0;0;6;0;1859;0;0;0;0;0;0;7;0;1654;0;0;0;0;8;0;1690;0;0;0;0;9;0;845;0;0;0;0
07.12.20;23:35:00;1;284;12387;0;2;0;1643;0;0;0;0;3;0;958;0;0;0;0;4;0;1282;0;0;0;0;5;0;0;0;0;0;0;0;0;6;0;1859;0;0;0;0;0;0;7;0;1654;0;0;0;0;8;0;1690;0;0;0;0;9;0;845;0;0;0;0
07.12.20;23:30:00;1;283;12363;0;2;0;1643;0;0;0;0;3;0;958;0;0;0;0;4;0;1282;0;0;0;0;5;0;0;0;0;0;0;0;0;6;0;1859;0;0;0;0;0;0;7;0;1654;0;0;0;0;8;0;1690;0;0;0;0;9;0;845;0;0;0;0
07.12.20;23:25:00;1;301;12340;0;2;0;1643;0;0;0;0;3;0;958;0;0;0;0;4;0;1282;0;0;0;0;5;0;0;0;0;0;0;0;0;6;0;1859;0;0;0;0;0;0;7;0;1654;0;0;0;0;8;0;1690;0;0;0;0;9;0;845;0;0;0;0
07.12.20;23:20:00;1;335;12315;0;2;0;1643;0;0;0;0;3;0;958;0;0;0;0;4;0;1282;0;0;0;0;5;0;0;0;0;0;0;0;0;6;0;1859;0;0;0;0;0;0;7;0;1654;0;0;0;0;8;0;1690;0;0;0;0;9;0;845;0;0;0;0
07.12.20;23:15:00;1;710;12286;0;2;0;1643;0;0;0;0;3;0;958;0;0;0;0;4;0;1282;0;0;0;0;5;0;0;0;0;0;0;0;0;6;0;1859;0;0;0;0;0;0;7;0;1654;0;0;0;0;8;0;1690;0;0;0;0;9;0;845;0;0;0;0
07.12.20;23:10:00;1;342;12221;0;2;0;1643;0;0;0;0;3;0;958;0;0;0;0;4;0;1282;0;0;0;0;5;0;0;0;0;0;0;0;0;6;0;1859;0;0;0;0;0;0;7;0;1654;0;0;0;0;8;0;1690;0;0;0;0;9;0;845;0;0;0;0
07.12.20;23:05:00;1;333;12193;0;2;0;1643;0;0;0;0;3;0;958;0;0;0;0;4;0;1282;0;0;0;0;5;0;0;0;0;0;0;0;0;6;0;1859;0;0;0;0;0;0;7;0;1654;0;0;0;0;8;0;1690;0;0;0;0;9;0;845;0;0;0;0
07.12.20;23:00:00;1;392;12164;0;2;0;1643;0;0;0;0;3;0;958;0;0;0;0;4;0;1282;0;0;0;0;5;0;0;0;0;0;0;0;0;6;0;1859;0;0;0;0;0;0;7;0;1654;0;0;0;0;8;0;1690;0;0;0;0;9;0;845;0;0;0;0
07.12.20;22:55:00;1;462;12132;0;2;0;1643;0;0;0;0;3;0;958;0;0;0;0;4;0;1282;0;0;0;0;5;0;0;0;0;0;0;0;0;6;0;1859;2;0;0;0;0;0;7;0;1654;0;0;0;0;8;0;1690;0;0;0;0;9;0;845;0;0;0;0
07.12.20;22:50:00;1;506;12094;0;2;0;1643;0;0;0;0;3;0;958;0;0;0;0;4;0;1282;0;0;0;0;5;0;0;0;0;0;0;0;0;6;0;1859;2;0;0;0;0;0;7;0;1654;0;0;0;0;8;0;1690;0;0;0;0;9;0;845;0;0;0;0
07.12.20;22:45:00;1;483;12052;0;2;0;1643;0;0;0;0;3;0;958;0;0;0;0;4;0;1282;0;0;0;0;5;0;0;0;0;0;0;0;0;6;0;1859;2;0;0;0;0;0;7;0;1654;0;0;0;0;8;0;1690;0;0;0;0;9;0;845;0;0;0;0
07.12.20;22:40:00;1;463;12011;0;2;0;1643;0;0;0;0;3;0;958;0;0;0;0;4;0;1282;0;0;0;0;5;0;0;0;0;0;0;0;0;6;0;1859;2;0;0;0;0;0;7;0;1654;0;0;0;0;8;0;1690;0;0;0;0;9;0;845;0;0;0;0
07.12.20;22:35:00;1;458;11973;0;2;0;1643;0;0;0;0;3;0;958;0;0;0;0;4;0;1282;0;0;0;0;5;0;0;0;0;0;0;0;0;6;0;1859;2;0;0;0;0;0;7;0;1654;0;0;0;0;8;0;1690;0;0;0;0;9;0;845;0;0;0;0
07.12.20;22:30:00;1;445;11935;0;2;0;1643;0;0;0;0;3;0;958;0;0;0;0;4;0;1282;0;0;0;0;5;0;0;0;0;0;0;0;0;6;0;1859;2;0;0;0;0;0;7;0;1654;0;0;0;0;8;0;1690;0;0;0;0;9;0;845;0;0;0;0
07.12.20;22:25:00;1;444;11898;0;2;0;1643;0;0;0;0;3;0;958;0;0;0;0;4;0;1282;0;0;0;0;5;0;0;0;0;0;0;0;0;6;0;1859;2;0;0;0;0;0;7;0;1654;0;0;0;0;8;0;1690;0;0;0;0;9;0;845;0;0;0;0
07.12.20;22:20:00;1;469;11860;0;2;0;1643;0;0;0;0;3;0;958;0;0;0;0;4;0;1282;0;0;0;0;5;0;0;0;0;0;0;0;0;6;0;1859;2;0;0;0;0;0;7;0;1654;0;0;0;0;8;0;1690;0;0;0;0;9;0;845;0;0;0;0
07.12.20;22:15:00;1;539;11821;0;2;0;1643;0;0;0;0;3;0;958;0;0;0;0;4;0;1282;0;0;0;0;5;0;0;0;0;0;0;0;0;6;0;1859;2;0;0;0;0;0;7;0;1654;0;0;0;0;8;0;1690;0;0;0;0;9;0;845;0;0;0;0
07.12.20;22:10:00;1;930;11777;0;2;0;1643;0;0;0;0;3;0;958;0;0;0;0;4;0;1282;0;0;0;0;5;0;0;0;0;0;0;0;0;6;0;1859;2;0;0;0;0;0;7;0;1654;0;0;0;0;8;0;1690;0;0;0;0;9;0;845;0;0;0;0
07.12.20;22:05:00;1;480;11703;0;2;0;1643;0;0;0;0;3;0;958;0;0;0;0;4;0;1282;0;0;0;0;5;0;0;0;0;0;0;0;0;6;0;1859;2;0;0;0;0;0;7;0;1654;0;0;0;0;8;0;1690;0;0;0;0;9;0;845;0;0;0;0
07.12.20;22:00:00;1;415;11664;0;2;0;1643;0;0;0;0;3;0;958;0;0;0;0;4;0;1282;0;0;0;0;5;0;0;0;0;0;0;0;0;6;0;1859;2;0;0;0;0;0;7;0;1654;0;0;0;0;8;0;1690;0;0;0;0;9;0;845;0;0;0;0
07.12.20;21:55:00;1;424;11629;0;2;0;1643;0;0;0;0;3;0;958;0;0;0;0;4;0;1282;0;0;0;0;5;0;0;0;0;0;0;0;0;6;0;1859;2;0;0;0;0;0;7;0;1654;0;0;0;0;8;0;1690;0;0;0;0;9;0;845;0;0;0;0
07.12.20;21:50:00;1;460;11594;0;2;0;1643;0;0;0;0;3;0;958;0;0;0;0;4;0;1282;0;0;0;0;5;0;0;0;0;0;0;0;0;6;0;1859;2;0;0;0;0;0;7;0;1654;0;0;0;0;8;0;1690;0;0;0;0;9;0;845;0;0;0;0
07.12.20;21:45:00;1;434;11557;0;2;0;1643;0;0;0;0;3;0;958;0;0;0;0;4;0;1282;0;0;0;0;5;0;0;0;0;0;0;0;0;6;0;1859;2;0;0;0;0;0;7;0;1654;0;0;0;0;8;0;1690;0;0;0;0;9;0;845;0;0;0;0
07.12.20;21:40:00;1;453;11520;0;2;0;1643;0;0;0;0;3;0;958;0;0;0;0;4;0;1282;0;0;0;0;5;0;0;0;0;0;0;0;0;6;0;1859;2;0;0;0;0;0;7;0;1654;0;0;0;0;8;0;1690;0;0;0;0;9;0;845;0;0;0;0
07.12.20;21:35:00;1;484;11482;0;2;0;1643;0;0;0;0;3;0;958;0;0;0;0;4;0;1282;0;0;0;0;5;0;0;0;0;0;0;0;0;6;0;1859;2;0;0;0;0;0;7;0;1654;0;0;0;0;8;0;1690;0;0;0;0;9;0;845;0;0;0;0
07.12.20;21:30:00;1;458;11440;0;2;0;1643;0;0;0;0;3;0;958;0;0;0;0;4;0;1282;0;0;0;0;5;0;0;0;0;0;0;0;0;6;0;1859;2;0;0;0;0;0;7;0;1654;0;0;0;0;8;0;1690;0;0;0;0;9;0;845;0;0;0;0
07.12.20;21:25:00;1;485;11402;0;2;0;1643;0;0;0;0;3;0;958;0;0;0;0;4;0;1282;0;0;0;0;5;0;0;0;0;0;0;0;0;6;0;1859;2;0;0;0;0;0;7;0;1654;0;0;0;0;8;0;1690;0;0;0;0;9;0;845;0;0;0;0
07.12.20;21:20:00;1;536;11361;0;2;0;1643;0;0;0;0;3;0;958;0;0;0;0;4;0;1282;0;0;0;0;5;0;0;0;0;0;0;0;0;6;0;1859;2;0;0;0;0;0;7;0;1654;0;0;0;0;8;0;1690;0;0;0;0;9;0;845;0;0;0;0
07.12.20;21:15:00;1;560;11316;0;2;0;1643;0;0;0;0;3;0;958;0;0;0;0;4;0;1282;0;0;0;0;5;0;0;0;0;0;0;0;0;6;0;1859;2;0;0;0;0;0;7;0;1654;0;0;0;0;8;0;1690;0;0;0;0;9;0;845;0;0;0;0
07.12.20;21:10:00;1;543;11270;0;2;0;1643;0;0;0;0;3;0;958;0;0;0;0;4;0;1282;0;0;0;0;5;0;0;0;0;0;0;0;0;6;0;1859;2;0;0;0;0;0;7;0;1654;0;0;0;0;8;0;1690;0;0;0;0;9;0;845;0;0;0;0
07.12.20;21:05:00;1;522;11225;0;2;0;1643;0;0;0;0;3;0;958;0;0;0;0;4;0;1282;0;0;0;0;5;0;0;0;0;0;0;0;0;6;0;1859;2;0;0;0;0;0;7;0;1654;0;0;0;0;8;0;1690;0;0;0;0;9;0;845;0;0;0;0
07.12.20;21:00:00;1;518;11181;0;2;0;1643;0;0;0;0;3;0;958;0;0;0;0;4;0;1282;0;0;0;0;5;0;0;0;0;0;0;0;0;6;0;1859;2;0;0;0;0;0;7;0;1654;0;0;0;0;8;0;1690;0;0;0;0;9;0;845;0;0;0;0
07.12.20;20:55:00;1;677;11121;0;2;0;1643;0;0;0;0;3;0;958;0;0;0;0;4;0;1282;0;0;0;0;5;0;0;0;0;0;0;0;0;6;0;1859;2;0;0;0;0;0;7;0;1654;0;0;0;0;8;0;1690;0;0;0;0;9;0;845;0;0;0;0
07.12.20;20:50:00;1;524;11062;0;2;0;1643;0;0;0;0;3;0;958;0;0;0;0;4;0;1282;0;0;0;0;5;0;0;0;0;0;0;0;0;6;0;1859;2;0;0;0;0;0;7;0;1654;0;0;0;0;8;0;1690;0;0;0;0;9;0;845;0;0;0;0
07.12.20;20:45:00;1;465;11019;0;2;0;1643;0;0;0;0;3;0;958;0;0;0;0;4;0;1282;0;0;0;0;5;0;0;0;0;0;0;0;0;6;0;1859;2;0;0;0;0;0;7;0;1654;0;0;0;0;8;0;1690;0;0;0;0;9;0;845;0;0;0;0
07.12.20;20:40:00;1;455;10980;0;2;0;1643;0;0;0;0;3;0;958;0;0;0;0;4;0;1282;0;0;0;0;5;0;0;0;0;0;0;0;0;6;0;1859;2;0;0;0;0;0;7;0;1654;0;0;0;0;8;0;1690;0;0;0;0;9;0;845;0;0;0;0
07.12.20;20:35:00;1;458;10942;0;2;0;1643;0;0;0;0;3;0;958;0;0;0;0;4;0;1282;0;0;0;0;5;0;0;0;0;0;0;0;0;6;0;1859;2;0;0;0;0;0;7;0;1654;0;0;0;0;8;0;1690;0;0;0;0;9;0;845;0;0;0;0
07.12.20;20:30:00;1;462;10903;0;2;0;1643;0;0;0;0;3;0;958;0;0;0;0;4;0;1282;0;0;0;0;5;0;0;0;0;0;0;0;0;6;0;1859;2;0;0;0;0;0;7;0;1654;0;0;0;0;8;0;1690;0;0;0;0;9;0;845;0;0;0;0
07.12.20;20:25:00;1;507;10865;0;2;0;1643;0;0;0;0;3;0;958;0;0;0;0;4;0;1282;0;0;0;0;5;0;0;0;0;0;0;0;0;6;0;1859;2;0;0;0;0;0;7;0;1654;0;0;0;0;8;0;1690;0;0;0;0;9;0;845;0;0;0;0
07.12.20;20:20:00;1;589;10823;0;2;0;1643;0;0;0;0;3;0;958;0;0;0;0;4;0;1282;0;0;0;0;5;0;0;0;0;0;0;0;0;6;0;1859;2;0;0;0;0;0;7;0;1654;0;0;0;0;8;0;1690;0;0;0;0;9;0;845;0;0;0;0
07.12.20;20:15:00;1;548;10773;0;2;0;1643;0;0;0;0;3;0;958;0;0;0;0;4;0;1282;0;0;0;0;5;0;0;0;0;0;0;0;0;6;0;1859;2;0;0;0;0;0;7;0;1654;0;0;0;0;8;0;1690;0;0;0;0;9;0;845;0;0;0;0
07.12.20;20:10:00;1;760;10728;0;2;0;1643;0;0;0;0;3;0;958;0;0;0;0;4;0;1282;0;0;0;0;5;0;0;0;0;0;0;0;0;6;0;1859;2;0;0;0;0;0;7;0;1654;0;0;0;0;8;0;1690;0;0;0;0;9;0;845;0;0;0;0
07.12.20;20:05:00;1;939;10665;0;2;0;1643;0;0;0;0;3;0;958;0;0;0;0;4;0;1282;0;0;0;0;5;0;0;0;0;0;0;0;0;6;0;1859;2;0;0;0;0;0;7;0;1654;0;0;0;0;8;0;1690;0;0;0;0;9;0;845;0;0;0;0
07.12.20;20:00:00;1;890;10590;0;2;0;1643;0;0;0;0;3;0;958;0;0;0;0;4;0;1282;0;0;0;0;5;0;0;0;0;0;0;0;0;6;0;1859;2;0;0;0;0;0;7;0;1654;0;0;0;0;8;0;1690;0;0;0;0;9;0;845;0;0;0;0
07.12.20;19:55:00;1;886;10491;0;2;0;1643;0;0;0;0;3;0;958;0;0;0;0;4;0;1282;0;0;0;0;5;0;0;0;0;0;0;0;0;6;0;1859;2;0;0;0;0;0;7;0;1654;0;0;0;0;8;0;1690;0;0;0;0;9;0;845;0;0;0;0
07.12.20;19:50:00;1;752;10414;0;2;0;1643;0;0;0;0;3;0;958;0;0;0;0;4;0;1282;0;0;0;0;5;0;0;0;0;0;0;0;0;6;0;1859;2;0;0;0;0;0;7;0;1654;0;0;0;0;8;0;1690;0;0;0;0;9;0;845;0;0;0;0
07.12.20;19:45:00;1;723;10349;0;2;0;1643;0;0;0;0;3;0;958;0;0;0;0;4;0;1282;0;0;0;0;5;0;0;0;0;0;0;0;0;6;0;1859;2;0;0;0;0;0;7;0;1654;0;0;0;0;8;0;1690;0;0;0;0;9;0;845;0;0;0;0
07.12.20;19:40:00;1;786;10289;0;2;0;1643;0;0;0;0;3;0;958;0;0;0;0;4;0;1282;0;0;0;0;5;0;0;0;0;0;0;0;0;6;0;1859;2;0;0;0;0;0;7;0;1654;0;0;0;0;8;0;1690;0;0;0;0;9;0;845;0;0;0;0
07.12.20;19:35:00;1;944;10224;0;2;0;1643;0;0;0;0;3;0;958;0;0;0;0;4;0;1282;0;0;0;0;5;0;0;0;0;0;0;0;0;6;0;1859;2;0;0;0;0;0;7;0;1654;0;0;0;0;8;0;1690;0;0;0;0;9;0;845;0;0;0;0
07.12.20;19:30:00;1;684;10144;0;2;0;1643;0;0;0;0;3;0;958;0;0;0;0;4;0;1282;0;0;0;0;5;0;0;0;0;0;0;0;0;6;0;1859;2;0;0;0;0;0;7;0;1654;0;0;0;0;8;0;1690;0;0;0;0;9;0;845;0;0;0;0
07.12.20;19:25:00;1;657;10085;0;2;0;1643;0;0;0;0;3;0;958;0;0;0;0;4;0;1282;0;0;0;0;5;0;0;0;0;0;0;0;0;6;0;1859;2;0;0;0;0;0;7;0;1654;0;0;0;0;8;0;1690;0;0;0;0;9;0;845;0;0;0;0
07.12.20;19:20:00;1;769;10030;0;2;0;1643;0;0;0;0;3;0;958;0;0;0;0;4;0;1282;0;0;0;0;5;0;0;0;0;0;0;0;0;6;0;1859;2;0;0;0;0;0;7;0;1654;0;0;0;0;8;0;1690;0;0;0;0;9;0;845;0;0;0;0
07.12.20;19:15:00;1;660;9958;0;2;0;1643;0;0;0;0;3;0;958;0;0;0;0;4;0;1282;0;0;0;0;5;0;0;0;0;0;0;0;0;6;0;1859;2;0;0;0;0;0;7;0;1654;0;0;0;0;8;0;1690;0;0;0;0;9;0;845;0;0;0;0
07.12.20;19:10:00;1;666;9903;0;2;0;1643;0;0;0;0;3;0;958;0;0;0;0;4;0;1282;0;0;0;0;5;0;0;0;0;0;0;0;0;6;0;1859;2;0;0;0;0;0;7;0;1654;0;0;0;0;8;0;1690;0;0;0;0;9;0;845;0;0;0;0
07.12.20;19:05:00;1;618;9850;0;2;0;1643;0;0;0;0;3;0;958;0;0;0;0;4;0;1282;0;0;0;0;5;0;0;0;0;0;0;0;0;6;0;1859;2;0;0;0;0;0;7;0;1654;0;0;0;0;8;0;1690;0;0;0;0;9;0;845;0;0;0;0
07.12.20;19:00:00;1;650;9798;0;2;0;1643;0;0;0;0;3;0;958;0;0;0;0;4;0;1282;0;0;0;0;5;0;0;0;0;0;0;0;0;6;0;1859;2;0;0;0;0;0;7;0;1654;0;0;0;0;8;0;1690;0;0;0;0;9;0;845;0;0;0;0
07.12.20;18:55:00;1;449;9715;0;2;0;1643;0;0;0;0;3;0;958;0;0;0;0;4;0;1282;0;0;0;0;5;0;0;0;0;0;0;0;0;6;0;1859;2;0;0;0;0;0;7;0;1654;0;0;0;0;8;0;1690;0;0;0;0;9;0;845;0;0;0;0
07.12.20;18:50:00;1;422;9677;0;2;0;1643;0;0;0;0;3;0;958;0;0;0;0;4;0;1282;0;0;0;0;5;0;0;0;0;0;0;0;0;6;0;1859;2;0;0;0;0;0;7;0;1654;0;0;0;0;8;0;1690;0;0;0;0;9;0;845;0;0;0;0
07.12.20;18:45:00;1;445;9641;0;2;0;1643;0;0;0;0;3;0;958;0;0;0;0;4;0;1282;0;0;0;0;5;0;0;0;0;0;0;0;0;6;0;1859;2;0;0;0;0;0;7;0;1654;0;0;0;0;8;0;1690;0;0;0;0;9;0;845;0;0;0;0
07.12.20;18:40:00;1;530;9605;0;2;0;1643;0;0;0;0;3;0;958;0;0;0;0;4;0;1282;0;0;0;0;5;0;0;0;0;0;0;0;0;6;0;1859;2;0;0;0;0;0;7;0;1654;0;0;0;0;8;0;1690;0;0;0;0;9;0;845;0;0;0;0
07.12.20;18:35:00;1;544;9561;0;2;0;1643;0;0;0;0;3;0;958;0;0;0;0;4;0;1282;0;0;0;0;5;0;0;0;0;0;0;0;0;6;0;1859;2;0;0;0;0;0;7;0;1654;0;0;0;0;8;0;1690;0;0;0;0;9;0;845;0;0;0;0
07.12.20;18:30:00;1;528;9515;0;2;0;1643;0;0;0;0;3;0;958;0;0;0;0;4;0;1282;0;0;0;0;5;0;0;0;0;0;0;0;0;6;0;1859;2;0;0;0;0;0;7;0;1654;0;0;0;0;8;0;1690;0;0;0;0;9;0;845;0;0;0;0
07.12.20;18:25:00;1;586;9472;0;2;0;1643;0;0;0;0;3;0;958;0;0;0;0;4;0;1282;0;0;0;0;5;0;0;0;0;0;0;0;0;6;0;1859;2;0;0;0;0;0;7;0;1654;0;0;0;0;8;0;1690;0;0;0;0;9;0;845;0;0;0;0
07.12.20;18:20:00;1;637;9424;0;2;0;1643;0;0;0;0;3;0;958;0;0;0;0;4;0;1282;0;0;0;0;5;0;0;0;0;0;0;0;0;6;0;1859;2;0;0;0;0;0;7;0;1654;0;0;0;0;8;0;1690;0;0;0;0;9;0;845;0;0;0;0
07.12.20;18:15:00;1;912;9368;0;2;0;1643;0;0;0;0;3;0;958;0;0;0;0;4;0;1282;0;0;0;0;5;0;0;0;0;0;0;0;0;6;0;1859;2;0;0;0;0;0;7;0;1654;0;0;0;0;8;0;1690;0;0;0;0;9;0;845;0;0;0;0
07.12.20;18:10:00;1;506;9290;0;2;0;1643;0;0;0;0;3;0;958;0;0;0;0;4;0;1282;0;0;0;0;5;0;0;0;0;0;0;0;0;6;0;1859;2;0;0;0;0;0;7;0;1654;0;0;0;0;8;0;1690;0;0;0;0;9;0;845;0;0;0;0
07.12.20;18:05:00;1;498;9248;0;2;0;1643;0;0;0;0;3;0;958;0;0;0;0;4;0;1282;0;0;0;0;5;0;0;0;0;0;0;0;0;6;0;1859;2;0;0;0;0;0;7;0;1654;0;0;0;0;8;0;1690;0;0;0;0;9;0;845;0;0;0;0
07.12.20;18:00:00;1;497;9206;0;2;0;1643;0;0;0;0;3;0;958;0;0;0;0;4;0;1282;0;0;0;0;5;0;0;0;0;0;0;0;0;6;0;1859;2;0;0;0;0;0;7;0;1654;0;0;0;0;8;0;1690;0;0;0;0;9;0;845;0;0;0;0
07.12.20;17:55:00;1;507;9165;0;2;0;1643;0;0;0;0;3;0;958;0;0;0;0;4;0;1282;0;0;0;0;5;0;0;0;0;0;0;0;0;6;0;1859;2;0;0;0;0;0;7;0;1654;0;0;0;0;8;0;1690;0;0;0;0;9;0;845;0;0;0;0
07.12.20;17:50:00;1;550;9123;0;2;0;1643;0;0;0;0;3;0;958;0;0;0;0;4;0;1282;0;0;0;0;5;0;0;0;0;0;0;0;0;6;0;1859;2;0;0;0;0;0;7;0;1654;0;0;0;0;8;0;1690;0;0;0;0;9;0;845;0;0;0;0
07.12.20;17:45:00;1;497;9077;0;2;0;1643;0;0;0;0;3;0;958;0;0;0;0;4;0;1282;0;0;0;0;5;0;0;0;0;0;0;0;0;6;0;1859;2;0;0;0;0;0;7;0;1654;0;0;0;0;8;0;1690;0;0;0;0;9;0;845;0;0;0;0
07.12.20;17:40:00;1;499;9035;0;2;0;1643;0;0;0;0;3;0;958;0;0;0;0;4;0;1282;0;0;0;0;5;0;0;0;0;0;0;0;0;6;0;1859;2;0;0;0;0;0;7;0;1654;0;0;0;0;8;0;1690;0;0;0;0;9;0;845;0;0;0;0
07.12.20;17:35:00;1;493;8994;0;2;0;1643;0;0;0;0;3;0;958;0;0;0;0;4;0;1282;0;0;0;0;5;0;0;0;0;0;0;0;0;6;0;1859;2;0;0;0;0;0;7;0;1654;0;0;0;0;8;0;1690;0;0;0;0;9;0;845;0;0;0;0
07.12.20;17:30:00;1;529;8953;0;2;0;1643;0;0;0;0;3;0;958;0;0;0;0;4;0;1282;0;0;0;0;5;0;0;0;0;0;0;0;0;6;0;1859;2;0;0;0;0;0;7;0;1654;0;0;0;0;8;0;1690;0;0;0;0;9;0;845;0;0;0;0
07.12.20;17:25:00;1;543;8908;0;2;0;1643;0;0;0;0;3;0;958;0;0;0;0;4;0;1282;0;0;0;0;5;0;0;0;0;0;0;0;0;6;0;1859;2;0;0;0;0;0;7;0;1654;0;0;0;0;8;0;1690;0;0;0;0;9;0;845;0;0;0;0
07.12.20;17:20:00;1;616;8863;0;2;0;1643;0;0;0;0;3;0;958;0;0;0;0;4;0;1282;0;0;0;0;5;0;0;0;0;0;0;0;0;6;0;1859;2;0;0;0;0;0;7;0;1654;0;0;0;0;8;0;1690;0;0;0;0;9;0;845;0;0;0;0
07.12.20;17:15:00;1;582;8812;0;2;0;1643;0;0;0;0;3;0;958;0;0;0;0;4;0;1282;0;0;0;0;5;0;0;0;0;0;0;0;0;6;0;1859;2;0;0;0;0;0;7;0;1654;0;0;0;0;8;0;1690;0;0;0;0;9;0;845;0;0;0;0
07.12.20;17:10:00;1;540;8763;0;2;0;1643;0;0;0;0;3;0;958;0;0;0;0;4;0;1282;0;0;0;0;5;0;0;0;0;0;0;0;0;6;0;1859;2;0;0;0;0;0;7;0;1654;0;0;0;0;8;0;1690;0;0;0;0;9;0;845;0;0;0;0
07.12.20;17:05:00;1;536;8720;0;2;0;1643;0;0;0;0;3;0;958;0;0;0;0;4;0;1282;0;0;0;0;5;0;0;0;0;0;0;0;0;6;0;1859;2;0;0;0;0;0;7;0;1654;0;0;0;0;8;0;1690;0;0;0;0;9;0;845;0;0;0;0
07.12.20;17:00:00;1;560;8677;0;2;0;1643;0;0;0;0;3;0;958;0;0;0;0;4;0;1282;0;0;0;0;5;0;0;0;0;0;0;0;0;6;0;1859;2;0;0;0;0;0;7;0;1654;0;0;0;0;8;0;1690;0;0;0;0;9;0;845;0;0;0;0
07.12.20;16:55:00;1;565;8630;0;2;0;1643;0;0;0;0;3;0;958;0;0;0;0;4;0;1282;0;0;0;0;5;0;0;0;0;0;0;0;0;6;0;1859;2;0;0;0;0;0;7;0;1654;0;0;0;0;8;0;1690;0;0;0;0;9;0;845;0;0;0;0
07.12.20;16:50:00;1;1383;8583;0;2;0;1643;0;0;0;0;3;0;958;0;0;0;0;4;0;1282;0;0;0;0;5;0;0;0;0;0;0;0;0;6;0;1859;2;0;0;0;0;0;7;0;1654;0;0;0;0;8;0;1690;0;0;0;0;9;0;845;0;0;0;0
07.12.20;16:45:00;1;502;8501;0;2;0;1643;0;0;0;0;3;0;958;0;0;0;0;4;0;1282;0;0;0;0;5;0;0;0;0;0;0;0;0;6;0;1859;2;0;0;0;0;0;7;0;1654;0;0;0;0;8;0;1690;0;0;0;0;9;0;845;0;0;0;0
07.12.20;16:40:00;1;493;8460;0;2;0;1643;0;0;147;5;3;0;958;0;0;239;10;4;0;1282;0;0;0;0;5;0;0;0;0;0;0;0;0;6;0;1859;2;0;0;0;0;0;7;0;1654;0;0;0;0;8;0;1690;0;0;0;0;9;0;845;0;0;0;0
07.12.20;16:35:00;1;493;8418;0;2;0;1643;6;0;305;9;3;0;958;6;0;350;12;4;0;1282;0;0;48;6;5;0;0;0;0;0;0;0;0;6;0;1859;2;0;0;0;0;0;7;0;1654;0;0;0;0;8;0;1690;0;0;0;0;9;0;845;0;0;0;0
07.12.20;16:30:00;1;521;8378;0;2;0;1643;6;0;343;9;3;0;958;6;1;397;13;4;0;1282;1;0;97;9;5;0;0;0;0;0;0;0;0;6;0;1859;1;2;1;59;103;9;7;0;1654;0;0;42;2;8;0;1690;0;0;42;2;9;0;845;0;0;87;3
07.12.20;16:25:00;1;529;8334;0;2;0;1643;6;0;373;9;3;0;958;6;1;438;13;4;0;1282;1;0;140;10;5;0;0;0;0;0;0;0;0;6;0;1859;23;6;4;180;501;20;7;0;1654;6;0;301;13;8;0;1690;6;0;305;13;9;0;845;6;0;316;9
07.12.20;16:20:00;1;639;8291;0;2;0;1643;6;0;390;9;3;0;958;6;1;469;13;4;0;1282;1;0;177;10;5;0;0;0;0;0;0;0;0;6;0;1859;23;7;6;181;554;21;7;0;1654;6;0;360;14;8;0;1690;6;0;366;13;9;0;845;6;0;386;9
07.12.20;16:15:00;1;904;8233;0;2;0;1643;6;0;407;9;3;2;958;3;7;475;13;4;0;1282;1;0;210;10;5;0;0;0;0;0;0;0;0;6;0;1859;23;6;3;288;583;21;7;0;1654;6;2;392;14;8;0;1690;6;0;415;13;9;0;845;6;0;446;9
07.12.20;16:10:00;1;1419;8161;0;2;3;1643;6;7;410;10;3;1;958;6;5;520;13;4;0;1282;3;0;224;10;5;0;0;0;0;0;0;0;0;6;0;1859;8;2;6;561;602;21;7;5;1654;6;8;443;14;8;1;1690;6;4;467;13;9;1;845;6;2;510;9
07.12.20;16:05:00;1;993;8068;0;2;3;1643;6;7;412;10;3;2;958;6;5;518;13;4;0;1282;3;0;222;11;5;0;0;0;0;0;0;0;0;6;29;1859;4;10;8;377;394;22;7;1;1653;6;4;465;14;8;2;1689;6;8;448;13;9;0;845;6;0;538;9
07.12.20;16:00:00;1;1027;7989;0;2;0;1643;6;0;411;10;3;1;957;6;3;502;13;4;0;1282;3;0;209;11;5;0;0;0;0;0;0;0;0;6;0;1857;8;5;3;424;593;22;7;1;1653;6;3;420;14;8;0;1689;6;1;442;14;9;2;845;3;1;474;9
07.12.20;15:55:00;1;1187;7904;0;2;3;1643;6;9;395;10;3;1;957;6;3;506;13;4;0;1282;3;0;217;11;5;0;0;0;0;0;0;0;0;6;25;1857;1;16;29;527;503;22;7;0;1653;6;1;439;14;8;0;1689;6;1;444;14;9;0;845;6;1;482;10
07.12.20;15:50:00;1;1235;7804;0;2;8;1642;6;17;394;10;3;0;957;6;0;538;13;4;0;1282;3;0;199;11;5;0;0;0;0;0;0;0;0;6;11;1855;4;9;14;507;563;22;7;0;1653;6;0;479;14;8;1;1689;4;2;462;14;9;1;845;6;3;504;10
07.12.20;15:45:00;1;2725;7697;0;2;3;1642;6;8;412;10;3;2;957;4;12;500;13;4;1;1282;3;1;199;11;5;0;0;0;0;0;0;0;0;6;44;1854;1;24;14;477;282;23;7;4;1653;3;11;455;14;8;7;1689;3;18;433;14;9;0;845;6;3;525;10
07.12.20;15:40:00;1;2332;7536;0;2;40;1642;6;59;375;11;3;4;957;6;8;533;13;4;10;1282;3;11;199;11;5;0;0;0;0;0;0;0;0;6;74;1850;4;58;35;448;218;23;7;3;1653;6;7;487;15;8;8;1689;6;17;463;14;9;1;845;6;4;538;10
07.12.20;15:35:00;1;1799;7362;0;2;21;1638;3;33;397;11;3;3;957;6;8;529;13;4;8;1281;3;9;199;11;5;0;0;0;0;0;0;0;0;6;71;1844;4;62;36;448;218;23;7;2;1652;6;7;483;15;8;4;1688;6;7;484;14;9;0;845;6;0;557;10
07.12.20;15:30:00;1;2219;7158;0;2;48;1636;4;73;356;11;3;3;956;6;8;533;13;4;16;1281;3;16;199;11;5;0;0;0;0;0;0;0;0;6;76;1838;4;53;31;448;218;23;7;4;1652;6;8;489;15;8;10;1687;6;19;465;15;9;2;845;4;5;540;10
07.12.20;15:25:00;1;2658;6964;0;2;54;1632;4;80;361;11;3;3;956;6;8;534;14;4;26;1279;3;27;198;11;5;0;0;0;0;0;0;0;0;6;83;1831;4;59;35;448;219;23;7;7;1652;6;10;491;15;8;4;1687;6;10;492;15;9;3;845;6;6;541;10
07.12.20;15:20:00;1;3072;6786;0;2;68;1628;4;95;366;11;3;5;956;6;10;541;14;4;36;1277;3;38;198;11;5;0;0;0;0;0;0;0;0;6;89;1824;4;62;36;448;218;23;7;35;1651;6;62;410;15;8;39;1686;6;63;415;15;9;4;844;6;8;546;10
07.12.20;15:15:00;1;950;6562;0;2;110;1622;4;137;369;11;3;61;955;4;93;454;14;4;61;1274;3;64;198;11;5;0;0;0;0;0;0;0;0;6;128;1816;4;89;50;447;218;23;7;82;1648;4;123;420;15;8;89;1683;4;124;439;15;9;5;844;6;9;563;10
07.12.20;15:10:00;1;827;6489;0;2;127;1613;4;155;375;11;3;67;950;4;106;500;14;4;80;1269;3;83;199;11;5;0;0;0;0;0;0;0;0;6;150;1806;4;96;49;448;218;23;7;101;1642;4;137;471;15;8;99;1676;4;131;481;15;9;11;844;6;14;566;10
07.12.20;15:05:00;1;1627;6395;0;2;112;1602;4;139;367;11;3;53;945;4;78;456;14;4;75;1262;3;78;198;11;5;0;0;0;0;0;0;0;0;6;142;1793;4;92;48;448;218;23;7;63;1633;4;104;483;15;8;96;1668;4;134;450;15;9;8;843;6;12;563;10
07.12.20;15:00:00;1;1286;6236;0;2;90;1593;4;115;375;11;3;7;940;6;12;547;14;4;45;1256;3;47;198;11;5;0;0;0;0;0;0;0;0;6;120;1781;4;71;39;448;218;23;7;63;1628;4;90;469;15;8;77;1660;4;106;428;15;9;7;842;4;11;553;11
07.12.20;14:55:00;1;1463;6105;0;2;101;1585;4;128;377;11;3;41;940;6;65;483;14;4;62;1252;3;64;198;11;5;0;0;0;0;0;0;0;0;6;126;1771;4;80;43;448;218;23;7;69;1623;4;106;458;15;8;82;1653;4;113;406;15;9;19;841;3;28;518;11
07.12.20;14:50:00;1;886;5972;0;2;106;1577;4;133;373;11;3;58;936;4;91;448;14;4;60;1247;3;62;198;11;5;0;0;0;0;0;0;0;0;6;135;1761;4;104;55;448;218;23;7;79;1617;4;115;427;15;8;88;1646;4;121;422;15;9;6;840;6;11;558;11
07.12.20;14:45:00;1;1285;5897;0;2;120;1568;4;146;371;11;3;67;932;4;103;463;14;4;73;1242;3;76;198;11;5;0;0;0;0;0;0;0;0;6;142;1750;4;98;51;448;218;23;7;105;1611;4;137;425;15;8;107;1639;4;139;418;15;9;17;839;6;23;546;11
07.12.20;14:40:00;1;1548;5818;0;2;127;1558;4;156;370;12;3;72;926;4;104;443;14;4;78;1236;3;81;199;11;5;0;0;0;0;0;0;0;0;6;148;1738;4;81;42;448;218;23;7;102;1602;4;144;431;15;8;107;1630;4;146;440;15;9;9;838;6;13;563;11
07.12.20;14:35:00;1;462;5680;0;2;147;1547;4;176;379;12;3;86;920;4;121;469;14;4;104;1229;3;108;220;12;5;0;0;0;0;0;0;0;0;6;161;1725;4;108;58;448;218;23;7;122;1593;4;153;388;15;8;135;1621;4;164;428;15;9;60;837;6;81;493;11
07.12.20;14:30:00;1;371;5641;0;2;167;1535;4;195;383;12;3;100;913;4;135;488;14;4;123;1221;5;129;225;12;5;0;0;0;0;0;0;0;0;6;181;1712;4;138;70;448;218;23;7;158;1583;4;186;407;16;8;160;1610;4;193;420;15;9;86;832;4;113;502;12
07.12.20;14:25:00;1;574;5610;0;2;179;1521;4;212;385;12;3;107;904;4;144;492;14;4;133;1210;5;139;224;12;5;0;0;0;0;0;0;0;0;6;189;1696;4;124;67;447;218;23;7;168;1570;4;197;404;16;8;171;1597;4;207;421;15;9;94;825;4;117;475;12
07.12.20;14:20:00;1;435;5548;0;2;220;1506;4;249;385;12;3;132;895;4;169;493;14;4;165;1199;5;172;227;12;5;0;0;0;0;0;0;0;0;6;247;1680;4;179;83;534;218;23;7;211;1556;4;249;449;16;8;220;1582;4;257;454;15;9;115;817;4;143;506;12
07.12.20;14:15:00;1;343;5512;0;2;282;1488;4;314;388;12;3;163;884;4;211;505;14;4;227;1185;5;236;234;12;5;0;0;0;0;0;0;0;0;6;324;1659;4;243;105;566;218;23;7;278;1538;4;331;477;16;8;297;1564;4;335;471;15;9;162;807;4;190;516;12
07.12.20;14:10:00;1;347;5482;0;2;262;1464;4;294;391;12;3;160;871;4;198;494;14;4;217;1166;5;226;235;12;5;0;0;0;0;0;0;0;0;6;319;1632;4;231;99;584;218;23;7;279;1515;4;320;480;16;8;291;1539;4;333;471;15;9;160;794;4;187;518;12
07.12.20;14:05:00;1;330;5453;0;2;246;1442;4;279;392;12;3;152;857;4;188;491;14;4;202;1148;5;210;230;11;5;0;0;0;0;0;0;0;0;6;301;1605;4;204;85;571;218;23;7;268;1492;4;305;471;16;8;266;1515;4;302;477;15;9;143;781;4;171;521;12
07.12.20;14:00:00;1;325;5425;0;2;249;1422;4;282;387;12;3;151;845;4;190;510;14;4;204;1131;5;213;232;12;5;0;0;0;0;0;0;0;0;6;304;1580;4;233;102;569;218;23;7;274;1470;4;309;474;16;8;284;1493;4;323;468;15;9;148;769;4;177;524;12
07.12.20;13:55:00;1;324;5398;0;2;237;1401;4;268;385;12;3;141;832;4;178;517;14;4;193;1114;5;201;230;11;5;0;0;0;0;0;0;0;0;6;296;1555;4;199;86;570;218;23;7;255;1447;4;299;470;15;8;270;1469;4;309;467;15;9;145;757;4;170;523;12
07.12.20;13:50:00;1;663;5371;0;2;286;1381;4;319;389;12;3;175;820;4;214;504;14;4;236;1098;5;246;235;11;5;0;0;0;0;0;0;0;0;6;338;1530;4;208;89;593;218;23;7;327;1426;4;345;474;15;8;314;1446;4;347;443;15;9;168;744;4;196;519;12
07.12.20;13:45:00;1;378;5316;0;2;301;1357;4;336;395;12;3;187;805;4;226;506;14;4;249;1078;5;259;236;11;5;0;0;0;0;0;0;0;0;6;349;1501;4;276;114;585;218;23;7;325;1398;4;361;481;15;8;325;1420;4;366;469;15;9;178;730;4;207;514;12
07.12.20;13:40:00;1;357;5284;0;2;331;1332;4;368;404;12;3;207;790;4;248;514;14;4;278;1057;5;290;240;11;5;0;0;0;0;0;0;0;0;6;378;1472;4;254;108;585;218;23;7;348;1371;4;378;465;15;8;343;1393;4;380;481;15;9;186;715;4;213;518;12
07.12.20;13:35:00;1;341;5255;0;2;290;1304;4;324;390;12;3;179;773;4;215;510;14;4;235;1034;5;244;234;11;5;0;0;0;0;0;0;0;0;6;340;1440;4;275;118;583;218;23;7;272;1342;4;312;474;15;8;280;1364;4;317;466;15;9;153;700;4;178;514;12
07.12.20;13:30:00;1;379;5227;0;2;303;1280;4;334;388;12;3;184;757;4;225;516;14;4;248;1015;5;259;234;11;5;0;0;0;0;0;0;0;0;6;347;1412;4;239;100;588;218;23;7;295;1319;4;330;478;15;8;305;1341;4;343;470;15;9;162;687;4;191;527;12
07.12.20;13:25:00;1;413;5195;0;2;295;1255;4;329;394;12;3;181;742;4;219;493;14;4;242;994;5;252;233;11;5;0;0;0;0;0;0;0;0;6;342;1383;4;253;109;577;218;23;7;297;1295;4;328;458;15;8;298;1316;4;338;461;15;9;160;673;4;190;519;12
07.12.20;13:20:00;1;446;5161;0;2;316;1230;4;352;400;12;3;197;727;4;236;502;14;4;263;974;5;274;238;11;5;0;0;0;0;0;0;0;0;6;370;1354;4;261;110;584;218;23;7;332;1270;4;362;458;15;8;327;1291;4;374;464;15;9;179;660;4;208;519;12